SWA2794 KDCA-KPVD

Flight info

Callsign SWA2794
Flight time 0h 56m
Altitude 39000
Route SOOKI6 SWANN BROSS Q419 RBV Q430 CREEL HTO JORDN2
Aircraft B737/M-SADE2E3GIJ4RWZ/LB1D1

Departure

Time 2026-04-23 00:22
Airport Ronald Reagan Washington National Airport (KDCA)

Arrival

Time 2026-04-23 01:19
Airport Rhode Island T. F. Green International Airport (KPVD)
Time Latitude Longitude Altitude Speed Heading
2026-04-22 23:50 38.84628 -77.04290 27 ft 0 kts 28°
2026-04-23 00:09 38.84613 -77.04300 29 ft 4 kts 28°
2026-04-23 00:09 38.84594 -77.04313 25 ft 4 kts 34°
2026-04-23 00:09 38.84581 -77.04335 24 ft 4 kts 100°
2026-04-23 00:10 38.84593 -77.04360 28 ft 4 kts 139°
2026-04-23 00:10 38.84613 -77.04383 23 ft 4 kts 139°
2026-04-23 00:10 38.84620 -77.04390 23 ft 0 kts 139°
2026-04-23 00:13 38.84618 -77.04388 23 ft 2 kts 139°
2026-04-23 00:14 38.84591 -77.04358 23 ft 8 kts 137°
2026-04-23 00:14 38.84565 -77.04276 24 ft 12 kts 88°
2026-04-23 00:14 38.84584 -77.04158 23 ft 15 kts 74°
2026-04-23 00:14 38.84636 -77.04037 26 ft 17 kts 28°
2026-04-23 00:15 38.84752 -77.03965 25 ft 20 kts 25°
2026-04-23 00:15 38.84885 -77.03950 23 ft 19 kts 355°
2026-04-23 00:15 38.85016 -77.03963 24 ft 19 kts 355°
2026-04-23 00:15 38.85143 -77.03976 26 ft 18 kts 355°
2026-04-23 00:16 38.85266 -77.03988 24 ft 17 kts 355°
2026-04-23 00:16 38.85353 -77.03952 26 ft 13 kts 26°
2026-04-23 00:16 38.85441 -77.03946 23 ft 13 kts 355°
2026-04-23 00:16 38.85528 -77.03954 27 ft 12 kts 355°
2026-04-23 00:17 38.85612 -77.03962 26 ft 12 kts 356°
2026-04-23 00:17 38.85695 -77.03970 26 ft 12 kts 355°
2026-04-23 00:17 38.85775 -77.03979 29 ft 11 kts 355°
2026-04-23 00:17 38.85853 -77.03987 26 ft 11 kts 355°
2026-04-23 00:18 38.85929 -77.03983 24 ft 11 kts 13°
2026-04-23 00:18 38.85995 -77.03959 25 ft 7 kts 15°
2026-04-23 00:18 38.85999 -77.03958 26 ft 0 kts 15°
2026-04-23 00:19 38.86017 -77.03951 25 ft 8 kts 15°
2026-04-23 00:20 38.86081 -77.03919 25 ft 12 kts 37°
2026-04-23 00:20 38.86076 -77.03865 23 ft 0 kts 174°
2026-04-23 00:21 38.85802 -77.03841 30 ft 80 kts 175°
2026-04-23 00:22 38.84997 -77.03759 26 ft 149 kts 176°
2026-04-23 00:22 38.83842 -77.03645 467 ft 169 kts 175°
2026-04-23 00:22 38.82704 -77.03506 1466 ft 164 kts 174°
2026-04-23 00:22 38.81509 -77.03245 1882 ft 189 kts 175°
2026-04-23 00:23 38.80115 -77.02934 2156 ft 217 kts 174°
2026-04-23 00:23 38.78549 -77.02583 2508 ft 238 kts 174°
2026-04-23 00:23 38.76910 -77.02058 3228 ft 249 kts 156°
2026-04-23 00:23 38.75599 -77.00579 4074 ft 263 kts 124°
2026-04-23 00:24 38.75041 -76.98251 4549 ft 286 kts 92°
2026-04-23 00:24 38.75045 -76.95669 5264 ft 294 kts 89°
2026-04-23 00:24 38.75323 -76.93050 5978 ft 301 kts 65°
2026-04-23 00:24 38.76462 -76.90844 6817 ft 297 kts 39°
2026-04-23 00:25 38.78095 -76.89330 7664 ft 293 kts 25°
2026-04-23 00:25 38.79852 -76.88000 8581 ft 296 kts 26°
2026-04-23 00:25 38.81406 -76.86185 9429 ft 311 kts 50°
2026-04-23 00:25 38.82655 -76.83882 10313 ft 317 kts 53°
2026-04-23 00:26 38.83915 -76.81464 10841 ft 336 kts 53°
2026-04-23 00:26 38.85255 -76.78892 11317 ft 354 kts 53°
2026-04-23 00:26 38.86643 -76.76246 12123 ft 360 kts 53°
2026-04-23 00:26 38.88049 -76.73585 13096 ft 362 kts 53°
2026-04-23 00:27 38.89477 -76.70899 14081 ft 365 kts 52°
2026-04-23 00:27 38.90921 -76.68198 14960 ft 368 kts 52°
2026-04-23 00:27 38.92381 -76.65473 15876 ft 372 kts 51°
2026-04-23 00:27 38.93851 -76.62734 16779 ft 374 kts 51°
2026-04-23 00:28 38.95336 -76.59968 17656 ft 378 kts 51°
2026-04-23 00:28 38.96836 -76.57171 18542 ft 382 kts 50°
2026-04-23 00:28 38.98349 -76.54347 19258 ft 387 kts 50°
2026-04-23 00:28 38.99887 -76.51476 19946 ft 392 kts 50°
2026-04-23 00:29 39.01438 -76.48577 20638 ft 397 kts 50°
2026-04-23 00:29 39.03012 -76.45631 21332 ft 402 kts 51°
2026-04-23 00:29 39.04608 -76.42640 22030 ft 407 kts 51°
2026-04-23 00:29 39.06218 -76.39618 22743 ft 411 kts 50°
2026-04-23 00:30 39.07840 -76.36572 23462 ft 415 kts 50°
2026-04-23 00:30 39.08927 -76.34530 23883 ft 418 kts 50°
2026-04-23 00:30 39.10580 -76.31421 24463 ft 422 kts 50°
2026-04-23 00:30 39.12786 -76.27270 25244 ft 426 kts 50°
2026-04-23 00:31 39.14301 -76.23946 25795 ft 435 kts 60°
2026-04-23 00:31 39.15086 -76.21492 26158 ft 442 kts 66°
2026-04-23 00:31 39.15847 -76.17676 26691 ft 451 kts 76°
2026-04-23 00:31 39.16318 -76.13608 27239 ft 455 kts 78°
2026-04-23 00:32 39.16725 -76.09541 27782 ft 459 kts 78°
2026-04-23 00:32 39.17140 -76.05451 28277 ft 462 kts 78°
2026-04-23 00:32 39.17581 -76.01393 28745 ft 466 kts 77°
2026-04-23 00:32 39.18053 -75.97248 29251 ft 469 kts 77°
2026-04-23 00:33 39.18596 -75.93077 29642 ft 471 kts 71°
2026-04-23 00:33 39.19740 -75.89155 30049 ft 464 kts 56°
2026-04-23 00:33 39.21471 -75.85697 30501 ft 456 kts 44°
2026-04-23 00:33 39.23675 -75.82826 30945 ft 446 kts 33°
2026-04-23 00:34 39.26057 -75.80262 31370 ft 446 kts 32°
2026-04-23 00:34 39.28466 -75.77717 31723 ft 448 kts 32°
2026-04-23 00:34 39.30879 -75.75150 32085 ft 450 kts 33°
2026-04-23 00:34 39.33288 -75.72550 32420 ft 453 kts 33°
2026-04-23 00:35 39.35703 -75.69910 32748 ft 455 kts 33°
2026-04-23 00:35 39.38122 -75.67247 33070 ft 457 kts 34°
2026-04-23 00:35 39.40546 -75.64573 33109 ft 459 kts 34°
2026-04-23 00:36 39.45416 -75.59205 33125 ft 460 kts 34°
2026-04-23 00:36 39.50289 -75.53850 33129 ft 459 kts 33°
2026-04-23 00:37 39.55130 -75.48523 33129 ft 459 kts 34°
2026-04-23 00:37 39.59985 -75.43167 33131 ft 459 kts 33°
2026-04-23 00:38 39.64862 -75.37779 33136 ft 460 kts 34°
2026-04-23 00:38 39.69731 -75.32395 33135 ft 460 kts 34°
2026-04-23 00:39 39.74599 -75.27001 33138 ft 460 kts 34°
2026-04-23 00:39 39.79429 -75.21573 33135 ft 462 kts 37°
2026-04-23 00:40 39.83776 -75.15301 33136 ft 468 kts 44°
2026-04-23 00:40 39.87967 -75.08826 33138 ft 468 kts 43°
2026-04-23 00:41 39.92194 -75.02447 33145 ft 467 kts 43°
2026-04-23 00:41 39.96464 -74.96053 33137 ft 469 kts 43°
2026-04-23 00:42 40.00318 -74.89088 33137 ft 476 kts 51°
2026-04-23 00:42 40.03909 -74.81806 33120 ft 477 kts 51°
2026-04-23 00:43 40.07527 -74.74550 33139 ft 477 kts 51°
2026-04-23 00:43 40.11185 -74.67330 33148 ft 476 kts 50°
2026-04-23 00:44 40.14840 -74.60121 33142 ft 476 kts 50°
2026-04-23 00:44 40.18492 -74.52893 33145 ft 476 kts 50°
2026-04-23 00:45 40.21532 -74.45110 33158 ft 487 kts 65°
2026-04-23 00:45 40.23691 -74.36703 33153 ft 489 kts 67°
2026-04-23 00:46 40.25820 -74.28241 33182 ft 489 kts 66°
2026-04-23 00:46 40.28011 -74.19794 33180 ft 490 kts 66°
2026-04-23 00:47 40.30224 -74.11347 33165 ft 491 kts 66°
2026-04-23 00:47 40.32432 -74.02877 33144 ft 491 kts 66°
2026-04-23 00:48 40.34633 -73.94395 33167 ft 492 kts 66°
2026-04-23 00:48 40.36820 -73.85951 33162 ft 492 kts 66°
2026-04-23 00:49 40.39011 -73.77470 33170 ft 491 kts 66°
2026-04-23 00:49 40.41196 -73.68981 33194 ft 490 kts 66°
2026-04-23 00:50 40.43375 -73.60486 33196 ft 489 kts 66°
2026-04-23 00:50 40.45758 -73.52177 33184 ft 482 kts 58°
2026-04-23 00:51 40.48808 -73.44360 33187 ft 480 kts 56°
2026-04-23 00:51 40.51923 -73.36607 33194 ft 480 kts 56°
2026-04-23 00:52 40.54967 -73.28866 33210 ft 480 kts 57°
2026-04-23 00:52 40.58002 -73.21018 33202 ft 481 kts 57°
2026-04-23 00:53 40.61023 -73.13159 33195 ft 482 kts 57°
2026-04-23 00:53 40.64044 -73.05280 33204 ft 482 kts 57°
2026-04-23 00:54 40.67059 -72.97404 33198 ft 482 kts 57°
2026-04-23 00:54 40.70077 -72.89502 33219 ft 482 kts 57°
2026-04-23 00:55 40.73089 -72.81592 33218 ft 483 kts 57°
2026-04-23 00:55 40.76099 -72.73668 33226 ft 483 kts 57°
2026-04-23 00:56 40.79085 -72.65782 33240 ft 483 kts 57°
2026-04-23 00:56 40.82050 -72.57922 33010 ft 470 kts 57°
2026-04-23 00:56 40.83497 -72.54076 32386 ft 466 kts 57°
2026-04-23 00:57 40.84946 -72.50234 31549 ft 469 kts 57°
2026-04-23 00:57 40.86402 -72.46370 30819 ft 470 kts 57°
2026-04-23 00:57 40.87850 -72.42517 30211 ft 466 kts 57°
2026-04-23 00:57 40.89277 -72.38707 29552 ft 461 kts 58°
2026-04-23 00:58 40.90707 -72.34894 28442 ft 466 kts 58°
2026-04-23 00:58 40.92145 -72.31046 27529 ft 467 kts 59°
2026-04-23 00:58 40.93513 -72.27170 26805 ft 462 kts 60°
2026-04-23 00:58 40.94808 -72.23320 25873 ft 455 kts 61°
2026-04-23 00:59 40.96077 -72.19490 24827 ft 453 kts 61°
2026-04-23 00:59 40.97338 -72.15690 23888 ft 448 kts 62°
2026-04-23 00:59 40.98585 -72.11953 22890 ft 441 kts 61°
2026-04-23 00:59 40.99819 -72.08275 21953 ft 433 kts 61°
2026-04-23 01:00 41.01034 -72.04665 21030 ft 426 kts 61°
2026-04-23 01:00 41.02235 -72.01098 20107 ft 420 kts 62°
2026-04-23 01:00 41.03414 -71.97593 19209 ft 415 kts 62°
2026-04-23 01:00 41.04572 -71.94142 18607 ft 404 kts 62°
2026-04-23 01:01 41.05782 -71.90860 17945 ft 388 kts 51°
2026-04-23 01:01 41.07413 -71.88134 17313 ft 373 kts 45°
2026-04-23 01:01 41.09075 -71.85546 16734 ft 363 kts 44°
2026-04-23 01:01 41.10693 -71.83037 16207 ft 354 kts 44°
2026-04-23 01:02 41.12283 -71.80557 15710 ft 352 kts 45°
2026-04-23 01:02 41.13857 -71.78086 15208 ft 351 kts 45°
2026-04-23 01:02 41.15429 -71.75604 14730 ft 350 kts 45°
2026-04-23 01:02 41.16982 -71.73136 14499 ft 348 kts 45°
2026-04-23 01:03 41.18532 -71.70670 14270 ft 356 kts 46°
2026-04-23 01:03 41.20129 -71.68126 14033 ft 360 kts 46°
2026-04-23 01:03 41.21729 -71.65566 13758 ft 359 kts 46°
2026-04-23 01:03 41.23319 -71.63018 13493 ft 357 kts 46°
2026-04-23 01:04 41.24902 -71.60479 13226 ft 356 kts 46°
2026-04-23 01:04 41.26476 -71.57954 12963 ft 354 kts 46°
2026-04-23 01:04 41.29606 -71.52926 12447 ft 352 kts 46°
2026-04-23 01:05 41.31167 -71.50416 12190 ft 351 kts 46°
2026-04-23 01:05 41.32722 -71.47917 11933 ft 350 kts 46°
2026-04-23 01:05 41.34503 -71.45793 11650 ft 341 kts 25°
2026-04-23 01:05 41.36678 -71.44748 11406 ft 328 kts
2026-04-23 01:06 41.38905 -71.44894 11104 ft 318 kts 343°
2026-04-23 01:06 41.40980 -71.45712 10824 ft 298 kts 337°
2026-04-23 01:06 41.42873 -71.46580 10823 ft 278 kts 336°
2026-04-23 01:06 41.44699 -71.47432 10302 ft 276 kts 336°
2026-04-23 01:07 41.46483 -71.48270 9867 ft 268 kts 336°
2026-04-23 01:07 41.48234 -71.49090 9320 ft 265 kts 336°
2026-04-23 01:07 41.49975 -71.49901 8715 ft 264 kts 336°
2026-04-23 01:07 41.51706 -71.50705 8216 ft 263 kts 336°
2026-04-23 01:08 41.53406 -71.51488 7702 ft 261 kts 336°
2026-04-23 01:08 41.55119 -71.52269 7144 ft 261 kts 336°
2026-04-23 01:08 41.56838 -71.53046 6574 ft 261 kts 336°
2026-04-23 01:08 41.58559 -71.53816 5948 ft 261 kts 336°
2026-04-23 01:09 41.60294 -71.54591 5292 ft 265 kts 336°
2026-04-23 01:09 41.62053 -71.55377 4686 ft 267 kts 336°
2026-04-23 01:09 41.63810 -71.56188 4073 ft 267 kts 336°
2026-04-23 01:09 41.65551 -71.57022 3759 ft 260 kts 336°
2026-04-23 01:10 41.67210 -71.57823 3686 ft 250 kts 336°
2026-04-23 01:10 41.68817 -71.58604 3625 ft 242 kts 336°
2026-04-23 01:10 41.70382 -71.59370 3548 ft 237 kts 336°
2026-04-23 01:10 41.71922 -71.60131 3296 ft 235 kts 336°
2026-04-23 01:11 41.73454 -71.60889 3000 ft 234 kts 336°
2026-04-23 01:11 41.74982 -71.61650 2761 ft 234 kts 336°
2026-04-23 01:11 41.76510 -71.62417 2627 ft 235 kts 336°
2026-04-23 01:11 41.78034 -71.63177 2629 ft 233 kts 336°
2026-04-23 01:12 41.79553 -71.63936 2624 ft 233 kts 336°
2026-04-23 01:12 41.81073 -71.64705 2615 ft 234 kts 336°
2026-04-23 01:12 41.82591 -71.65471 2597 ft 233 kts 336°
2026-04-23 01:12 41.84095 -71.66185 2602 ft 233 kts 346°
2026-04-23 01:13 41.85673 -71.65939 2609 ft 232 kts 31°
2026-04-23 01:13 41.86737 -71.64405 2618 ft 225 kts 75°
2026-04-23 01:13 41.86813 -71.62403 2631 ft 214 kts 106°
2026-04-23 01:13 41.86627 -71.60382 2615 ft 221 kts 101°
2026-04-23 01:14 41.86471 -71.58350 2601 ft 216 kts 109°
2026-04-23 01:14 41.85785 -71.56666 2534 ft 201 kts 137°
2026-04-23 01:14 41.84772 -71.55471 2430 ft 187 kts 146°
2026-04-23 01:14 41.83781 -71.54432 2307 ft 174 kts 147°
2026-04-23 01:15 41.82853 -71.53459 2226 ft 168 kts 147°
2026-04-23 01:15 41.81929 -71.52491 2139 ft 169 kts 146°
2026-04-23 01:15 41.81009 -71.51522 2008 ft 169 kts 146°
2026-04-23 01:15 41.80092 -71.50552 1952 ft 166 kts 146°
2026-04-23 01:16 41.79202 -71.49609 1752 ft 157 kts 147°
2026-04-23 01:16 41.78391 -71.48751 1558 ft 142 kts 147°
2026-04-23 01:16 41.77672 -71.47990 1398 ft 124 kts 148°
2026-04-23 01:16 41.77013 -71.47293 1239 ft 120 kts 148°
2026-04-23 01:17 41.76357 -71.46602 1073 ft 121 kts 148°
2026-04-23 01:17 41.75915 -71.46137 967 ft 123 kts 146°
2026-04-23 01:17 41.75238 -71.45418 798 ft 125 kts 146°
2026-04-23 01:17 41.74551 -71.44696 627 ft 127 kts 148°
2026-04-23 01:18 41.73840 -71.43930 411 ft 136 kts 149°
2026-04-23 01:18 41.73059 -71.43104 115 ft 149 kts 145°
2026-04-23 01:18 41.72262 -71.42258 55 ft 136 kts 141°
2026-04-23 01:18 41.71707 -71.41681 57 ft 64 kts 142°
2026-04-23 01:19 41.71691 -71.41654 55 ft 0 kts 264°